Location: Julian California
(33.0790°N, 116.6010°W)
Time: 03:32:09
(UTC-07:00)

H-2A R/B - Pass Details

Date: 19 May 2017
Orbit: 256 x 33091 km, 28.4° (Epoch: 23 June)

Event Time Altitude Azimuth Distance (km) Brightness Sun altitude
Rises 12:33:37 0° 219° (SW) 17,843 9.1 76.7°
Reaches altitude 10° 12:56:18 10° 215° (SW) 21,331 9.7 76.5°
Maximum altitude 21:00:20 71° 195° (SSW) 2,707 4.6 -14.9°
Enters shadow 21:06:15 21° 115° (ESE) 2,637 4.1 -15.9°
